UPPER FREE FLYER

Satellite information

Favourite Embed

Satellite Type and Status

PAYLOADIN ORBIT

Key statistics

Satellite UPPER FREE FLYER at a glance.

Uptime

2568

Days in orbit

Revolutions

≈ 15.1

Per day

Orbit

SSO

Sun Synchronous Orbit

Inclination

97.5

Latest

Satellite identification and parameters

Extended collection of information and parameters for UPPER FREE FLYER.

Object identification

Identified? True

Debris? False

Object name: UPPER FREE FLYER

International designator: 2018-099F

Object number (NORAD): 43763

Object ID (CCSDS): 43763

Country: UNITED STATES OF AMERICA (US)

Current information (Y/N): Y

RCS size: LARGE

Orbital parameters

Period: 95.375 minutes

Inclination: 97.4651 deg

SMA: 6914.858 km

Apoapsis: 545.151 km

Periapsis: 528.294 km

RAAN: 35.2888 deg

Eccentricy: 0.00121892

Argument of periapsis: 223.826 deg

Mean anomaly: 136.2003 deg

Mean motion: 15.09829461 rev/day

Mean motion (dot): 0.00006327 rev/day2

B* drag term: 0.0003943614 1/REarth

Two-line elements (TLE)

Creation date: Dec. 12, 2025, 10:14 a.m.

Reference frame: TEME

Reference center: EARTH

Epoch: Dec. 12, 2025, 5:56 a.m. UTC

TLE line 0: 0 UPPER FREE FLYER

TLE line 1: 1 43763U 18099F 25346.24788112 .00006327 00000-0 39436-3 0 9999

TLE line 2: 2 43763 97.4651 35.2888 0012189 223.8260 136.2003 15.09829461384325

Live tracking on map

Real-time ground track for satellite UPPER FREE FLYER.

In-orbit conjunctions

There are no conjunctions computed for UPPER FREE FLYER, at the moment. Check back to stay up to date, as we update our databases every day.

Go to all conjunctions

Associated space launch

Dedicated rideshare launching payloads into sun-synchronous orbit. Payloads include ORS-6, EU:CROPIS, STPSat-5, BlackSky Global-1 to -4, HawkEye Pathfinder 1-3, Iceye, NEXTSat-1, 2 SkySats, Centauri II, and a Flock of Doves.

UPPER FREE FLYER was lifted into orbit during the mission ‘Falcon 9 Block 5 | Spaceflight SSO-A’, on board a Falcon 9 space rocket.

The launch took place on Dec. 3, 2018, 6:34 p.m. from Space Launch Complex 4E.

For more information about the launch, click the button.

Launch to space Falcon 9 Block 5 | Spaceflight SSO-A
Falcon 9 Block 5 | Spaceflight SSO-A

Agency: N/A

Status: Launch Successful

Launch date: Dec. 3, 2018, 6:34 p.m. UTC

Rocket: Falcon 9

Launch pad: Space Launch Complex 4E

Location: Vandenberg SFB, CA, USA

...

Latest news about this satellite

There are no fresh news available about this satellite. Check back as we update our databases every day.


Newsletter sign-up

Weekly statistics, charts and insights to help you stay on top of the space industry.